N91HK MYAM-KOLV

Flight info

Callsign N91HK
Flight time N/A
Altitude 38000
Route FOMGU DCT CHEFS DCT HALLR DCT SHEEK Q110 SMELZ Q116 LOBBS J41 GOOGY DCT CRAMM
Aircraft CL60/M-SADE3FGHIJ3J4J7P2RWXY/HB1D1

Departure

Time N/A
Airport Leonard M. Thompson International Airport (MYAM)

Arrival

Time 2026-04-29 23:32
Airport Olive Branch Airport (KOLV)
Time Latitude Longitude Altitude Speed Heading
2026-04-29 21:55 27.44284 -81.09775 37943 ft 451 kts 288°
2026-04-29 21:55 27.45007 -81.13215 37973 ft 451 kts 288°
2026-04-29 21:55 27.46426 -81.19989 37979 ft 451 kts 288°
2026-04-29 21:56 27.47870 -81.26921 37992 ft 451 kts 288°
2026-04-29 21:56 27.49307 -81.33831 37993 ft 451 kts 288°
2026-04-29 21:57 27.50734 -81.40716 37984 ft 452 kts 288°
2026-04-29 21:57 27.52163 -81.47642 37989 ft 451 kts 288°
2026-04-29 21:58 27.53583 -81.54543 37951 ft 452 kts 288°
2026-04-29 21:58 27.55020 -81.61434 37943 ft 450 kts 289°
2026-04-29 21:59 27.56716 -81.68241 37920 ft 447 kts 293°
2026-04-29 21:59 27.59501 -81.74426 37916 ft 440 kts 308°
2026-04-29 22:00 27.63495 -81.79565 37913 ft 436 kts 320°
2026-04-29 22:00 27.68354 -81.83763 37927 ft 435 kts 328°
2026-04-29 22:01 27.73538 -81.87309 37952 ft 435 kts 330°
2026-04-29 22:01 27.78776 -81.90794 37982 ft 437 kts 330°
2026-04-29 22:02 27.84067 -81.94334 37986 ft 438 kts 330°
2026-04-29 22:02 27.89307 -81.97852 37983 ft 437 kts 330°
2026-04-29 22:03 27.94518 -82.01363 37987 ft 436 kts 330°
2026-04-29 22:03 27.99740 -82.04888 37979 ft 437 kts 330°
2026-04-29 22:04 28.05030 -82.08469 37982 ft 438 kts 330°
2026-04-29 22:04 28.10218 -82.12147 38000 ft 438 kts 326°
2026-04-29 22:05 28.15243 -82.16161 37984 ft 439 kts 326°
2026-04-29 22:06 28.22671 -82.22096 37985 ft 437 kts 326°
2026-04-29 22:06 28.27657 -82.26083 37958 ft 437 kts 326°
2026-04-29 22:07 28.32624 -82.30060 37993 ft 437 kts 326°
2026-04-29 22:07 28.37593 -82.34043 37993 ft 436 kts 326°
2026-04-29 22:08 28.42614 -82.38071 37990 ft 435 kts 326°
2026-04-29 22:08 28.47577 -82.42057 37992 ft 435 kts 326°
2026-04-29 22:09 28.52533 -82.46043 37991 ft 436 kts 326°
2026-04-29 22:09 28.57514 -82.50053 37988 ft 435 kts 326°
2026-04-29 22:10 28.62468 -82.54047 37989 ft 434 kts 326°
2026-04-29 22:10 28.67421 -82.58044 37989 ft 433 kts 326°
2026-04-29 22:11 28.72351 -82.62026 37994 ft 432 kts 326°
2026-04-29 22:11 28.77273 -82.66007 37995 ft 433 kts 326°
2026-04-29 22:12 28.82215 -82.70010 37993 ft 432 kts 325°
2026-04-29 22:12 28.87144 -82.74006 37994 ft 432 kts 326°
2026-04-29 22:13 28.92083 -82.78014 37955 ft 433 kts 325°
2026-04-29 22:13 28.96983 -82.81996 37943 ft 432 kts 325°
2026-04-29 22:14 29.01895 -82.85993 37965 ft 431 kts 325°
2026-04-29 22:14 29.06828 -82.90012 37966 ft 430 kts 325°
2026-04-29 22:15 29.11684 -82.93972 37961 ft 430 kts 325°
2026-04-29 22:15 29.16452 -82.97865 37956 ft 429 kts 325°
2026-04-29 22:16 29.21327 -83.01851 37958 ft 428 kts 325°
2026-04-29 22:16 29.26184 -83.05827 37960 ft 427 kts 325°
2026-04-29 22:17 29.31028 -83.09797 37953 ft 427 kts 325°
2026-04-29 22:17 29.35898 -83.13792 37957 ft 427 kts 325°
2026-04-29 22:18 29.40806 -83.17823 37950 ft 427 kts 325°
2026-04-29 22:18 29.45652 -83.21809 37947 ft 427 kts 325°
2026-04-29 22:19 29.50543 -83.25836 37945 ft 426 kts 325°
2026-04-29 22:19 29.55363 -83.29810 37967 ft 425 kts 325°
2026-04-29 22:20 29.60192 -83.33797 37935 ft 425 kts 324°
2026-04-29 22:20 29.65013 -83.37781 37931 ft 424 kts 324°
2026-04-29 22:21 29.69811 -83.41751 37950 ft 424 kts 325°
2026-04-29 22:21 29.74632 -83.45745 37934 ft 424 kts 324°
2026-04-29 22:22 29.79425 -83.49721 37947 ft 423 kts 324°
2026-04-29 22:22 29.84230 -83.53710 37963 ft 423 kts 324°
2026-04-29 22:23 29.89037 -83.57707 37954 ft 425 kts 325°
2026-04-29 22:23 29.93870 -83.61726 37963 ft 425 kts 324°
2026-04-29 22:24 29.98681 -83.65733 37973 ft 424 kts 324°
2026-04-29 22:24 30.03330 -83.69609 37974 ft 423 kts 324°
2026-04-29 22:25 30.08263 -83.73727 37981 ft 423 kts 324°
2026-04-29 22:25 30.13011 -83.77696 37923 ft 422 kts 323°
2026-04-29 22:26 30.17772 -83.81682 37935 ft 421 kts 323°
2026-04-29 22:26 30.22515 -83.85660 37917 ft 419 kts 323°
2026-04-29 22:27 30.27254 -83.89639 37925 ft 420 kts 323°
2026-04-29 22:27 30.32005 -83.93636 37930 ft 419 kts 323°
2026-04-29 22:28 30.36724 -83.97607 37927 ft 419 kts 323°
2026-04-29 22:28 30.41492 -84.01627 37938 ft 418 kts 323°
2026-04-29 22:29 30.46214 -84.05612 37950 ft 420 kts 323°
2026-04-29 22:29 30.50948 -84.09615 37918 ft 419 kts 323°
2026-04-29 22:30 30.55663 -84.13602 37952 ft 418 kts 323°
2026-04-29 22:30 30.60369 -84.17588 37922 ft 418 kts 323°
2026-04-29 22:31 30.65100 -84.21600 37933 ft 418 kts 322°
2026-04-29 22:31 30.69804 -84.25595 37940 ft 418 kts 323°
2026-04-29 22:32 30.74500 -84.29588 37920 ft 419 kts 322°
2026-04-29 22:32 30.79257 -84.33637 37919 ft 419 kts 323°
2026-04-29 22:33 30.83962 -84.37648 37909 ft 419 kts 322°
2026-04-29 22:33 30.88671 -84.41668 37933 ft 417 kts 322°
2026-04-29 22:34 30.93369 -84.45682 37928 ft 417 kts 322°
2026-04-29 22:34 30.98040 -84.49680 37934 ft 417 kts 322°
2026-04-29 22:35 31.02743 -84.53709 37956 ft 416 kts 322°
2026-04-29 22:35 31.07443 -84.57742 37940 ft 416 kts 322°
2026-04-29 22:36 31.12093 -84.61735 37940 ft 415 kts 322°
2026-04-29 22:36 31.16626 -84.65633 37906 ft 417 kts 322°
2026-04-29 22:37 31.21361 -84.69709 37913 ft 416 kts 321°
2026-04-29 22:37 31.25996 -84.73704 37927 ft 414 kts 321°
2026-04-29 22:38 31.30670 -84.77737 37938 ft 413 kts 322°
2026-04-29 22:38 31.35302 -84.81740 37937 ft 412 kts 321°
2026-04-29 22:39 31.39925 -84.85738 37963 ft 413 kts 321°
2026-04-29 22:39 31.44545 -84.89742 37938 ft 412 kts 321°
2026-04-29 22:40 31.49170 -84.93756 37962 ft 410 kts 321°
2026-04-29 22:40 31.51421 -84.95714 38574 ft 401 kts 320°
2026-04-29 22:40 31.53615 -84.97618 39450 ft 387 kts 320°
2026-04-29 22:40 31.55747 -84.99471 40104 ft 377 kts 320°
2026-04-29 22:41 31.57847 -85.01305 40505 ft 372 kts 321°
2026-04-29 22:41 31.59911 -85.03117 40769 ft 371 kts 320°
2026-04-29 22:41 31.62017 -85.04967 40919 ft 372 kts 320°
2026-04-29 22:42 31.66197 -85.08642 40852 ft 379 kts 319°
2026-04-29 22:42 31.68331 -85.10517 40697 ft 385 kts 319°
2026-04-29 22:42 31.70489 -85.12414 40507 ft 391 kts 320°
2026-04-29 22:42 31.72713 -85.14368 40337 ft 396 kts 320°
2026-04-29 22:43 31.74934 -85.16320 40195 ft 402 kts 320°
2026-04-29 22:43 31.77186 -85.18298 39937 ft 407 kts 320°
2026-04-29 22:43 31.79464 -85.20303 39541 ft 407 kts 320°
2026-04-29 22:43 31.81751 -85.22311 39247 ft 404 kts 319°
2026-04-29 22:44 31.83983 -85.24269 38924 ft 401 kts 319°
2026-04-29 22:44 31.86218 -85.26231 38593 ft 399 kts 319°
2026-04-29 22:44 31.88433 -85.28178 38278 ft 399 kts 319°
2026-04-29 22:44 31.90680 -85.30155 37777 ft 403 kts 320°
2026-04-29 22:45 31.92920 -85.32127 37190 ft 403 kts 320°
2026-04-29 22:45 31.95162 -85.34102 36619 ft 401 kts 319°
2026-04-29 22:45 31.97396 -85.36069 36049 ft 401 kts 320°
2026-04-29 22:45 31.99645 -85.38052 35481 ft 402 kts 320°
2026-04-29 22:46 32.01917 -85.40052 34910 ft 404 kts 319°
2026-04-29 22:46 32.04157 -85.42026 34344 ft 406 kts 319°
2026-04-29 22:46 32.06439 -85.44037 33768 ft 407 kts 319°
2026-04-29 22:46 32.08709 -85.46041 33209 ft 409 kts 319°
2026-04-29 22:47 32.10981 -85.48048 32658 ft 407 kts 319°
2026-04-29 22:47 32.13122 -85.49938 32140 ft 403 kts 319°
2026-04-29 22:47 32.15427 -85.51973 31919 ft 402 kts 319°
2026-04-29 22:48 32.19924 -85.55929 31907 ft 410 kts 319°
2026-04-29 22:48 32.24569 -85.60024 31906 ft 418 kts 320°
2026-04-29 22:49 32.29101 -85.64029 31908 ft 418 kts 319°
2026-04-29 22:49 32.33799 -85.68200 31906 ft 421 kts 318°
2026-04-29 22:50 32.38496 -85.72376 31911 ft 425 kts 319°
2026-04-29 22:50 32.43255 -85.76615 31897 ft 427 kts 319°
2026-04-29 22:51 32.48006 -85.80856 31914 ft 427 kts 318°
2026-04-29 22:51 32.55168 -85.87267 31909 ft 429 kts 317°
2026-04-29 22:52 32.59938 -85.91547 31920 ft 427 kts 319°
2026-04-29 22:52 32.64704 -85.95834 31929 ft 428 kts 318°
2026-04-29 22:53 32.69466 -86.00122 31933 ft 428 kts 318°
2026-04-29 22:53 32.74245 -86.04432 31936 ft 427 kts 317°
2026-04-29 22:54 32.78973 -86.08704 31960 ft 427 kts 317°
2026-04-29 22:54 32.83724 -86.13003 31950 ft 426 kts 317°
2026-04-29 22:55 32.88492 -86.17325 31957 ft 428 kts 317°
2026-04-29 22:55 32.93234 -86.21626 31938 ft 428 kts 317°
2026-04-29 22:56 32.97996 -86.25952 31942 ft 427 kts 317°
2026-04-29 22:56 33.02730 -86.30257 31951 ft 427 kts 316°
2026-04-29 22:57 33.07473 -86.34579 31982 ft 428 kts 316°
2026-04-29 22:57 33.12238 -86.38925 31982 ft 427 kts 317°
2026-04-29 22:58 33.16993 -86.43272 31940 ft 429 kts 317°
2026-04-29 22:58 33.21734 -86.47610 31943 ft 429 kts 317°
2026-04-29 22:59 33.26496 -86.51973 31922 ft 430 kts 317°
2026-04-29 22:59 33.31264 -86.56349 31952 ft 429 kts 317°
2026-04-29 23:00 33.36019 -86.60719 31945 ft 431 kts 316°
2026-04-29 23:00 33.40807 -86.65126 31957 ft 431 kts 316°
2026-04-29 23:01 33.45608 -86.69544 31971 ft 430 kts 316°
2026-04-29 23:01 33.50404 -86.73971 31960 ft 430 kts 315°
2026-04-29 23:02 33.55129 -86.78339 31966 ft 430 kts 316°
2026-04-29 23:02 33.59919 -86.82771 31967 ft 430 kts 316°
2026-04-29 23:03 33.64578 -86.87222 31971 ft 427 kts 312°
2026-04-29 23:03 33.68391 -86.92587 31982 ft 418 kts 298°
2026-04-29 23:04 33.71266 -86.98670 31950 ft 416 kts 296°
2026-04-29 23:04 33.74057 -87.04711 31957 ft 413 kts 295°
2026-04-29 23:05 33.76843 -87.10774 31923 ft 413 kts 295°
2026-04-29 23:05 33.79628 -87.16872 31960 ft 412 kts 296°
2026-04-29 23:06 33.82375 -87.22902 31948 ft 413 kts 295°
2026-04-29 23:06 33.85152 -87.29024 31954 ft 412 kts 296°
2026-04-29 23:07 33.87917 -87.35135 31943 ft 413 kts 296°
2026-04-29 23:07 33.90684 -87.41261 31933 ft 411 kts 296°
2026-04-29 23:08 33.93404 -87.47308 31944 ft 412 kts 295°
2026-04-29 23:08 33.96141 -87.53404 31947 ft 412 kts 296°
2026-04-29 23:09 33.98879 -87.59516 31956 ft 411 kts 295°
2026-04-29 23:09 34.01606 -87.65614 31949 ft 411 kts 294°
2026-04-29 23:10 34.04382 -87.71593 31931 ft 412 kts 298°
2026-04-29 23:10 34.07428 -87.77502 31949 ft 412 kts 298°
2026-04-29 23:11 34.10440 -87.83353 31953 ft 412 kts 297°
2026-04-29 23:11 34.13469 -87.89260 31945 ft 412 kts 298°
2026-04-29 23:12 34.16489 -87.95161 31943 ft 412 kts 297°
2026-04-29 23:12 34.19510 -88.01082 31939 ft 412 kts 297°
2026-04-29 23:13 34.21012 -88.04024 31755 ft 412 kts 297°
2026-04-29 23:13 34.22516 -88.06972 31274 ft 405 kts 297°
2026-04-29 23:13 34.23990 -88.09872 30756 ft 400 kts 297°
2026-04-29 23:13 34.25451 -88.12759 30256 ft 397 kts 296°
2026-04-29 23:14 34.26883 -88.15583 29722 ft 392 kts 297°
2026-04-29 23:14 34.28291 -88.18361 29222 ft 388 kts 297°
2026-04-29 23:14 34.29707 -88.21158 28715 ft 386 kts 297°
2026-04-29 23:14 34.31100 -88.23911 28195 ft 385 kts 297°
2026-04-29 23:15 34.32513 -88.26706 27672 ft 383 kts 297°
2026-04-29 23:15 34.33901 -88.29452 27168 ft 381 kts 297°
2026-04-29 23:15 34.35275 -88.32170 26660 ft 379 kts 296°
2026-04-29 23:15 34.36656 -88.34908 26169 ft 376 kts 297°
2026-04-29 23:16 34.38025 -88.37628 25650 ft 375 kts 297°
2026-04-29 23:16 34.39386 -88.40331 25155 ft 376 kts 297°
2026-04-29 23:16 34.40750 -88.43049 24658 ft 374 kts 297°
2026-04-29 23:16 34.42094 -88.45720 24151 ft 372 kts 297°
2026-04-29 23:17 34.43448 -88.48405 23690 ft 370 kts 297°
2026-04-29 23:17 34.44785 -88.51060 23196 ft 368 kts 297°
2026-04-29 23:17 34.46114 -88.53697 22729 ft 365 kts 298°
2026-04-29 23:17 34.47441 -88.56332 22237 ft 361 kts 298°
2026-04-29 23:18 34.48730 -88.58897 21766 ft 358 kts 298°
2026-04-29 23:18 34.50028 -88.61482 21273 ft 356 kts 298°
2026-04-29 23:18 34.51318 -88.64056 20825 ft 356 kts 299°
2026-04-29 23:18 34.52600 -88.66616 20329 ft 355 kts 298°
2026-04-29 23:19 34.53895 -88.69202 19874 ft 354 kts 299°
2026-04-29 23:19 34.55180 -88.71767 19382 ft 354 kts 299°
2026-04-29 23:19 34.56431 -88.74271 18938 ft 351 kts 299°
2026-04-29 23:19 34.57709 -88.76830 18467 ft 350 kts 300°
2026-04-29 23:20 34.58954 -88.79323 18011 ft 351 kts 300°
2026-04-29 23:20 34.60220 -88.81863 17539 ft 347 kts 300°
2026-04-29 23:20 34.61472 -88.84374 17079 ft 347 kts 300°
2026-04-29 23:20 34.62717 -88.86884 16585 ft 346 kts 299°
2026-04-29 23:21 34.63638 -88.89573 16181 ft 343 kts 285°
2026-04-29 23:21 34.64149 -88.92384 15680 ft 343 kts 283°
2026-04-29 23:21 34.64649 -88.95242 15198 ft 340 kts 283°
2026-04-29 23:21 34.65136 -88.98058 14770 ft 339 kts 283°
2026-04-29 23:22 34.65615 -89.00860 14311 ft 337 kts 283°
2026-04-29 23:22 34.66153 -89.03610 13877 ft 345 kts 286°
2026-04-29 23:22 34.66877 -89.06527 13499 ft 370 kts 289°
2026-04-29 23:22 34.67783 -89.09496 13151 ft 382 kts 292°
2026-04-29 23:23 34.68871 -89.12474 12803 ft 386 kts 296°
2026-04-29 23:23 34.70121 -89.15381 12480 ft 385 kts 299°
2026-04-29 23:23 34.71508 -89.18158 12142 ft 385 kts 302°
2026-04-29 23:23 34.73059 -89.20857 11799 ft 386 kts 306°
2026-04-29 23:24 34.74736 -89.23412 11448 ft 386 kts 309°
2026-04-29 23:24 34.76258 -89.26044 11125 ft 371 kts 297°
2026-04-29 23:24 34.77188 -89.28890 10673 ft 346 kts 290°
2026-04-29 23:24 34.78034 -89.31570 10074 ft 333 kts 291°
2026-04-29 23:25 34.78864 -89.34164 9439 ft 322 kts 291°
2026-04-29 23:25 34.79665 -89.36667 8817 ft 313 kts 291°
2026-04-29 23:25 34.80442 -89.39133 8129 ft 309 kts 291°
2026-04-29 23:25 34.81202 -89.41579 7388 ft 306 kts 291°
2026-04-29 23:26 34.81947 -89.43990 6653 ft 303 kts 291°
2026-04-29 23:26 34.82650 -89.46356 5941 ft 300 kts 291°
2026-04-29 23:26 34.83331 -89.48781 5196 ft 299 kts 291°
2026-04-29 23:26 34.83963 -89.51164 4503 ft 295 kts 291°
2026-04-29 23:27 34.84562 -89.53533 4075 ft 283 kts 291°
2026-04-29 23:27 34.85105 -89.55780 3714 ft 272 kts 291°
2026-04-29 23:27 34.85605 -89.57983 3368 ft 263 kts 291°
2026-04-29 23:27 34.86070 -89.60107 3013 ft 256 kts 291°
2026-04-29 23:28 34.86520 -89.62192 2655 ft 250 kts 291°
2026-04-29 23:28 34.86955 -89.64231 2294 ft 245 kts 291°
2026-04-29 23:28 34.87361 -89.66209 2072 ft 234 kts 291°
2026-04-29 23:28 34.87725 -89.68057 2070 ft 215 kts 290°
2026-04-29 23:29 34.88119 -89.69788 2070 ft 209 kts 296°
2026-04-29 23:29 34.88647 -89.71472 1948 ft 209 kts 299°
2026-04-29 23:29 34.89169 -89.73093 1953 ft 206 kts 299°
2026-04-29 23:29 34.89698 -89.74725 1952 ft 208 kts 299°
2026-04-29 23:30 34.90247 -89.76375 1933 ft 207 kts 303°
2026-04-29 23:30 34.91018 -89.77801 1802 ft 190 kts 325°
2026-04-29 23:30 34.92111 -89.78389 1477 ft 158 kts 355°
2026-04-29 23:30 34.93139 -89.78590 1176 ft 143 kts 358°
2026-04-29 23:31 34.94066 -89.78681 1060 ft 117 kts 360°
2026-04-29 23:31 34.94889 -89.78696 880 ft 115 kts
2026-04-29 23:31 34.95686 -89.78674 695 ft 113 kts
2026-04-29 23:31 34.96490 -89.78673 529 ft 114 kts
2026-04-29 23:32 34.97267 -89.78680 402 ft 102 kts
2026-04-29 23:32 34.97860 -89.78686 405 ft 56 kts
2026-04-29 23:32 34.98114 -89.78688 404 ft 18 kts 360°
2026-04-29 23:32 34.98151 -89.78726 404 ft 7 kts 268°
2026-04-29 23:33 34.98148 -89.78812 404 ft 7 kts 262°
2026-04-29 23:33 34.98148 -89.78865 405 ft 7 kts 273°
2026-04-29 23:33 34.98117 -89.78911 406 ft 11 kts 179°
2026-04-29 23:33 34.97942 -89.78907 406 ft 28 kts 180°
2026-04-29 23:34 34.97787 -89.78909 404 ft 10 kts 188°
2026-04-29 23:34 34.97778 -89.78965 404 ft 7 kts 319°
2026-04-29 23:34 34.97815 -89.78972 404 ft 2 kts
2026-04-29 23:34 34.97829 -89.78972 404 ft 0 kts 359°